Regional Weather Roundup
Issued by NWS Charleston, SC

Current Version | Previous Version | Text Only | Print | Product List | Glossary Off
Versions: 1 2 3 4 5 6 7 8 9 10 11 12 13 14 15 16 17 18 19 20 21 22 23 24 25 26 27 28 29 30 31 32 33 34 35 36 37 38 39 40 41 42 43 44 45 46 47 48 49 50

000
ASUS42 KCHS 271526
RWRCHS

REGIONAL WEATHER ROUNDUP
NATIONAL WEATHER SERVICE CHARLESTON SC
1000 AM EST FRI FEB 27 2015

NOTE: "FAIR" INDICATES FEW OR NO CLOUDS BELOW 12,000 FEET WITH NO
SIGNIFICANT WEATHER AND/OR OBSTRUCTIONS TO VISIBILITY.

NOT ALL STATIONS ARE QUALITY CONTROLLED BY THE NATIONAL
WEATHER SERVICE. USE DATA WITH CAUTION...ESPECIALLY
DEWPOINT OBSERVATIONS.

SCZ027-030-031-034>040-042>050-271600-
...SOUTHEAST SOUTH CAROLINA...

CITY           SKY/WX    TMP DP  RH WIND       PRES   REMARKS
N CHARLESTON   CLOUDY    42  34  73 NE3       30.36R
WATERFRONT PRK   N/A     41 N/A N/A N10         N/A
MOUNT PLEASANT LGT RAIN  43  34  70 N6        30.37R
PINOPOLIS        N/A     39  34  81 NE7       30.27R WCI  34
MONCKS CORNER  FAIR      45  34  65 CALM      30.37R
SUMMERVILLE    FAIR      45  36  70 NE7       30.38R
BEAUFORT MCAS  CLOUDY    43  35  73 NE7       30.37R
BEAUFORT ARPT  FAIR      43  36  75 NE8       30.37R
HILTON HEAD IS CLOUDY    43  36  75 N7        30.37R
WALTERBORO     PTSUNNY   45  36  70 E6        30.38R
ALLENDALE      FAIR      45  36  70 N5        30.37R

...SOUTHERN MIDLANDS AND PEE DEE...

CITY           SKY/WX    TMP DP  RH WIND       PRES   REMARKS
GEORGETOWN     NOT AVBL
KINGSTREE      NOT AVBL
ORANGEBURG     MOSUNNY   41  32  70 NE6       30.38R
BARNWELL       FAIR      45  36  70 NE3       30.38R
AIKEN          PTSUNNY   45  36  70 N3        30.39R
MANNING        FAIR      43  32  65 N3        30.38R
COLUMBIA       PTSUNNY   43  35  73 CALM      30.38R
SUMTER         MOSUNNY   40  31  72 N7        30.36R WCI  35
FLORENCE       MOSUNNY   40  30  67 NE5       30.37R WCI  37
MYRTLE BEACH   SUNNY     39  34  81 NE9       30.37R WCI  33
N MYRTLE BEACH PTSUNNY   42  32  67 NE10      30.35R

$$

GAZ063-065-086>088-099>101-113>116-118-119-134>141-150-271600-
...SOUTHEAST GEORGIA...

CITY           SKY/WX    TMP DP  RH WIND       PRES   REMARKS
SAVANNAH ARPT  CLOUDY    45  34  65 NE9       30.37R
HUNTER AAF     CLOUDY    44  35  71 NE9       30.34R
FORT STEWART   CLOUDY    44  36  74 NE9       30.34R
STATESBORO     PTSUNNY   46  37  69 NE5       30.38R
SYLVANIA       MOSUNNY   46  38  75 E6        30.37R
CLAXTON        FAIR      45  37  76 NE6       30.37R

...CSRA...CENTRAL AND FAR SOUTHEAST GEORGIA...

CITY           SKY/WX    TMP DP  RH WIND       PRES   REMARKS
THOMSON        SUNNY     48  42  81 CALM      30.40F
AUGUSTA-BUSH   CLOUDY    45  36  70 VRB3      30.38R
AUGUSTA-DANIEL CLOUDY    46  37  71 CALM      30.37R
SWAINSBORO     CLOUDY    46  32  57 CALM      30.38R
VIDALIA        MOSUNNY   45  41  87 CALM      30.37R
EASTMAN        CLOUDY    44  38  77 CALM      30.40R
HAZLEHURST     PTSUNNY   46  41  82 N6        30.36R
ALMA           CLOUDY    45  38  76 VRB3      30.36R
WAYCROSS       CLOUDY    50  43  78 NE8       30.36R
JESUP          FAIR      46  39  76 E6        30.37R
BAXLEY         FAIR      46  39  76 E5        30.36R
BRUNSWICK      CLOUDY    46  37  71 NE8       30.37R
SAINT SIMONS   CLOUDY    45  37  73 N12       30.35R

$$

SCZ027-028-034-036>038-045-046-048>050-GAZ119-141-271600-
...LAKE AND SUPPLEMENTAL COASTAL OBSERVATIONS...

STATION/POSITION TIME  TEMP    WIND        PRES    WAVE   SWELL
                       AIR SEA DIR/SP/G            HT/PER HT/PER/DIR
                 (UTC) (F)     (DEG/KT/KT) (MB)    (FT/S) (FT/S/D)
UPR LAKE MARION  NOT AVBL
WINYAH BAY       1400   38      40/  7     1026.0
LAKE MURRAY      1500   42     160/  2/  4 1028.1R
ACE BASIN NERRS  NOT AVBL
FORT PULASKI     1500   42 49   20/  7/  8 1028.5R
SAPELO ISLAND    1500   45      20/  9     1028.0R

$$

ANZ835-935-AMZ111-154-330-350-352-354-370-450-454-472-271600-
...C-MAN AND BUOY OBSERVATIONS...

STATION/POSITION TIME  TEMP    WIND        PRES    WAVE   SWELL
                       AIR SEA DIR/SP/G            HT/PER HT/PER/DIR
                 (UTC) (F)     (DEG/KT/KT) (MB)    (FT/S) (FT/S/D)
BUOY 41004       1450   47 66   20/ 17/ 21 1026.0R   5/ 8   3/ 8
BUOY 41008       1450   46 52   40/ 16/ 19 1027.0R   4/11   2/110/11
FOLLY BEACH CMAN 1500   40      30/ 11/ 12 1028.4R
CAPERS NEARSHORE NOT AVBL
FRIPP NEARSHORE  1400   42      40/ 16/ 16 1025.6R


STATION/POSITION TIME  TEMP    WIND        PRES    WAVE   SWELL
                       AIR SEA DIR/SP/G            HT/PER HT/PER/DIR
                 (UTC) (F)     (DEG/KT/KT) (MB)    (FT/S) (FT/S/D)
5E ST. MARYS GA  1421      53                N/A     5/ 5
FRYING PAN BUOY  1450   44 60   30/ 16/ 19 1027.2R   5/ 9   3/130/ 9
BUOY 41025       NOT AVBL
CAPE LOOKOUT NC  1500   38      10/ 13/ 15 1027.2R
BUOY 41002       1450   62 70  340/ 12/ 16 1022.9R  10/11  10/ 10/11
BUOY 41010       1420   68 73   40/ 14/ 17 1021.1R
ST AUGUSTINE FL  1500   50     360/ 22/ 25 1026.1R


$$



USA.gov is the U.S. government's official web portal to all federal, state and local government web resources and services.